Regional Weather Roundup
Issued by NWS

Home | Current Version | Previous Version | Graphics & Text | Print | Product List | Glossary On
Versions: 1 2 3 4 5 6 7 8 9 10 11 12 13 14 15 16 17 18 19 20 21 22 23 24 25 26 27 28 29 30 31 32 33 34 35 36 37 38 39 40 41 42 43 44 45 46 47 48 49 50
000
ASUS45 KPSR 231610
RWRAZ

ARIZONA REGIONAL HOURLY WEATHER ROUNDUP
NATIONAL WEATHER SERVICE PHOENIX AZ
900 AM MST WED APR 23 2014

NOTE: FAIR INDICATES FEW OR NO CLOUDS BELOW 12,000 FEET WITH NO
SIGNIFICANT WEATHER AND/OR OBSTRUCTIONS TO VISIBILITY.

AZZ001>003-036-231700-
NORTHWEST ARIZONA

CITY           SKY/WX    TMP DP  RH WIND       PRES   REMARKS
BULLHEAD CITY  SUNNY     70  18  13 N24G33    29.85S
KINGMAN        MOSUNNY   62   8  12 N20       29.93R
$$

AZZ004>008-015-016-018-231700-
NORTH CENTRAL ARIZONA

CITY           SKY/WX    TMP DP  RH WIND       PRES   REMARKS
GRAND CANYON   CLOUDY    49   7  18 VRB7      29.95R
WILLIAMS       PTSUNNY   50   7  17 W7        30.01S
PRESCOTT       MOSUNNY   58  10  15 N7        29.91S
FLAGSTAFF      PTSUNNY   50   7  17 SW16      29.95R
PAYSON         MOSUNNY   61  23  23 S8G16     29.94R
PAGE           CLOUDY    55  19  24 W6        29.89R
$$

AZZ009>014-017-231700-
NORTHEAST ARIZONA

CITY           SKY/WX    TMP DP  RH WIND       PRES   REMARKS
WINSLOW        SUNNY     64  19  17 SW13G24   29.89R
SAINT JOHNS    SUNNY     63  27  25 SW21G32   29.91S
WINDOW ROCK    MOSUNNY   59  22  24 W22G29    29.92S
SHOW LOW       SUNNY     55  25  30 S24G31    29.96S
$$

AZZ023-231700-
GREATER PHOENIX AREA

CITY           SKY/WX    TMP DP  RH WIND       PRES   REMARKS
PHOENIX        MOSUNNY   74  15  10 NW9       29.81R
BUCKEYE          N/A     72  14  11 W7        29.84R
GLENDALE       MOSUNNY   72  21  15 S13       29.83R
LUKE AFB       NOT AVBL
DEER VALLEY    SUNNY     68  18  14 S6        29.83R
SCOTTSDALE     SUNNY     71  20  14 SW6       29.84R
MESA-FALCON    MOSUNNY   68  25  19 S7        29.82R
MESA-GATEWAY   MOSUNNY   73  25  16 SW7       29.84R
CHANDLER       MOSUNNY   72  27  18 SW12      29.82S
$$

AZZ027-028-231700-
SOUTHWEST MARICOPA COUNTY AND PINAL COUNTY

CITY           SKY/WX    TMP DP  RH WIND       PRES   REMARKS
CASA GRANDE    SUNNY     72  18  13 SW5       29.84S
GILA BEND      SUNNY     72  28  20 VRB6      29.85R
$$

AZZ503-504-507>509-231700-
SOUTHEAST ARIZONA

CITY           SKY/WX    TMP DP  RH WIND       PRES   REMARKS
TUCSON         SUNNY     75  31  19 S12       29.89S
DAVIS-MONTHAN  SUNNY     74  33  22 SW12      29.87S
RYAN FIELD       N/A     77  32  19 SW9G20    29.87F
NOGALES        SUNNY     72  29  20 S10       29.94S
SIERRA VISTA   SUNNY     70  23  17 SW15      29.96S
DOUGLAS        SUNNY     70  25  18 S9        29.94F
SAFFORD        SUNNY     71  25  17 CALM      29.86S
$$

AZZ020-021-025-026-031-231700-
SOUTHWEST ARIZONA

CITY           SKY/WX    TMP DP  RH WIND       PRES   REMARKS
YUMA           PTSUNNY   76  17  11 N6        29.84R
$$

CAZ031-033-041-043-047-048-061-231700-
SOUTHERN CALIFORNIA

CITY           SKY/WX    TMP DP  RH WIND       PRES   REMARKS
DOWNTOWN L.A.  CLOUDY    63  51  65 VRB3      29.96S
L.A. AIRPORT   PTSUNNY   64  47  53 NE7       29.97R
SAN DIEGO      PTSUNNY   62  49  62 SW3       29.99R
BURBANK        SUNNY     59  46  62 SE5       29.96R
ONTARIO        PTSUNNY   58  49  72 VRB3      29.96S
RIVERSIDE      PTSUNNY   58  49  72 CALM      29.97R
PALM SPRINGS   SUNNY     68  42  38 NW14G25   29.88S
EL CENTRO NAS  PTSUNNY   72  47  40 NW13      29.85S
IMPERIAL       SUNNY     71  49  45 NW8       29.85R
BLYTHE         SUNNY     71  17  12 MISG      29.85R
NEEDLES        SUNNY     74  12   9 N20G26    29.86R
$$

NVZ020-UTZ003-231700-
SOUTHERN NEVADA-UTAH

CITY           SKY/WX    TMP DP  RH WIND       PRES   REMARKS
LAS VEGAS      MOSUNNY   65  11  12 NW16G23   29.90R
SALT LAKE CITY MOSUNNY   45  25  45 NW15      30.02R
$$

NMZ009-TXZ055-231700-
NEW MEXICO-WEST TEXAS

CITY           SKY/WX    TMP DP  RH WIND       PRES   REMARKS
ALBUQUERQUE    MOSUNNY   66  25  21 W18       29.89S
EL PASO        PTSUNNY   75  25  15 W18G24    29.91R
$$


........................KEY........................
SKY/WX - SKY CONDITION/WEATHER
TMP    - TEMPERATURE IN FAHRENHEIT
DP     - DEW POINT IN FAHRENHEIT
RH     - RELATIVE HUMIDITY IN PERCENT
WIND   - DIRECTION AND SPEED IN MILES PER HOUR (MPH)
VRB    - VARIABLE WIND DIRECTION
PRES   - MEAN SEA LEVEL PRESSURE IN INCHES OF MERCURY
         F - FALLING PRESSURE   R - RISING PRESSURE
         S - STEADY PRESSURE
VSB    - VISIBILITY IN MILES
HX     - HEAT INDEX IN FAHRENHEIT
WCI    - WIND CHILL INDEX IN FAHRENHEIT
TC     - TEMPERATURE IN CELSIUS WHICH IS ALSO KNOWN AS
         TEMPERATURE IN CENTIGRADE
AFB    - AIR FORCE BASE
         LUKE AFB IS LUKE AIR FORCE BASE
         DAVIS-MONTHAN IS DAVIS-MONTHAN AIR FORCE BASE
NAS    - NAVAL AIR STATION
         EL CENTRO NAS IS EL CENTRO NAVAL AIR STATION
N/A    - NOT AVAILABLE



USA.gov is the U.S. government's official web portal to all federal, state and local government web resources and services.